[[{"header":{"parameterUnit":"m.s-1","parameterCategory":1,"la1":30.2992,"la2":30.254,"lo1":-89.0895,"lo2":-89.0443,"dy":0.0025,"dx":0.0025,"nx":19,"ny":19,"refTime":"2026-03-27T09:00:00:Z","depth":0,"parameterNumber":2,"parameterNumberName":"U-component_of_WINDS"},"data":[0,0,0,-1.6718,-1.672,-1.6822,-1.6822,-1.695,-1.6951,0,0,0,0,0,0,0,0,0,0,0,-1.6687,-1.6687,-1.6718,-1.6721,-1.6822,-1.6822,-1.695,-1.6951,0,0,0,0,0,0,0,0,0,0,0,-1.6686,-1.6687,-1.6688,-1.6721,-1.6822,-1.6822,-1.695,-1.6874,0,0,0,0,0,0,0,0,0,0,-1.6776,-1.6745,-1.6687,-1.6688,-1.6721,-1.6822,-1.6822,-1.6871,-1.6879,-1.6903,0,-1.6924,0,-1.694,-1.696,-1.696,0,0,0,-1.6722,-1.6738,-1.6767,-1.6688,-1.6722,-1.6821,-1.6777,-1.6875,-1.6885,-1.6914,-1.6926,-1.6931,-1.6942,-1.6961,-1.6961,-1.7095,-1.7096,0,0,-1.6717,-1.6704,-1.676,-1.6773,-1.6756,-1.6773,-1.678,-1.6881,-1.6893,-1.6926,-1.6934,-1.6944,-1.6961,-1.6962,-1.7095,-1.7095,0,0,0,-1.6699,-1.67,-1.6726,-1.6767,-1.6786,-1.6776,-1.6784,-1.6889,-1.6898,-1.6935,-1.6945,-1.6962,-1.6964,-1.7094,-1.7095,-1.711,0,0,0,-1.6696,-1.669,-1.6724,-1.6717,-1.6784,-1.6838,-1.6789,-1.6891,-1.6903,-1.6945,-1.6962,-1.6965,-1.7094,-1.7095,-1.7108,-1.712,0,0,0,-1.6681,-1.6688,-1.6702,-1.6716,-1.6759,-1.6837,-1.6852,-1.6894,-1.6909,-1.696,-1.6965,-1.7093,-1.7094,-1.7107,-1.7118,-1.7152,0,0,0,-1.6661,-1.6715,-1.6702,-1.6767,-1.6758,-1.6845,-1.6852,-1.6917,-1.6963,-1.6963,-1.7094,-1.7095,-1.7106,-1.7116,-1.715,-1.718,-1.719,0,0,-1.6722,-1.6722,-1.6761,-1.6752,-1.6838,-1.683,-1.6918,-1.6972,-1.6989,-1.7059,-1.7063,-1.7109,-1.7117,-1.7152,-1.7252,-1.726,0,0,0,-1.6776,-1.6804,-1.6829,-1.6872,-1.6913,-1.695,-1.6992,-1.7012,-1.7072,-1.7022,-1.7131,-1.7136,-1.7157,-1.7171,-1.7178,-1.7197,-1.7101,-1.7101,-1.71,-1.6847,-1.6864,-1.6929,-1.6959,-1.7,-1.7041,-1.7077,-1.7111,-1.7117,-1.7142,-1.7164,-1.7222,-1.7239,-1.7244,-1.7264,-1.7179,-1.718,-1.718,-1.718,-1.6939,-1.6982,-1.6987,-1.7053,-1.7071,-1.7127,-1.7169,-1.7171,-1.7227,-1.7208,-1.7227,-1.7206,-1.7253,-1.7271,-1.7181,-1.7181,-1.7181,-1.718,-1.718,-1.6989,-1.7012,-1.7034,-1.7097,-1.7143,-1.7171,-1.7223,-1.7237,-1.7252,-1.727,-1.7295,-1.7295,-1.7297,-1.7281,-1.7281,-1.7281,-1.7281,-1.7281,-1.7282,-1.7032,-1.7056,-1.7098,-1.7146,-1.7174,-1.7214,-1.7256,-1.7285,-1.7321,-1.7328,-1.7328,-1.7332,-1.7254,-1.7234,-1.7285,-1.7284,-1.7284,-1.7284,-1.7283,-1.7122,-1.7103,-1.7168,-1.7197,-1.7254,-1.7299,-1.7316,-1.7373,-1.7399,-1.7425,-1.7424,-1.7364,-1.7365,-1.7359,-1.7344,-1.742,-1.742,-1.742,-1.742,-1.7164,-1.7165,-1.7235,-1.7279,-1.7325,-1.7346,-1.742,-1.7452,-1.7483,-1.75,-1.7491,-1.7471,-1.7464,-1.747,-1.7462,-1.7447,-1.7548,-1.7548,-1.7548,-1.7221,-1.7227,-1.7287,-1.7315,-1.736,-1.7399,-1.7469,-1.7521,-1.7552,-1.7554,-1.7515,-1.7509,-1.7477,-1.7465,-1.7468,-1.7455,-1.7429,0,0]},{"header":{"parameterUnit":"m.s-1","parameterCategory":1,"la1":30.2992,"la2":30.254,"lo1":-89.0895,"lo2":-89.0443,"dy":0.0025,"dx":0.0025,"nx":19,"ny":19,"refTime":"2026-03-27T09:00:00:Z","depth":0,"parameterNumber":3,"parameterNumberName":"V-component_of_WINDS"},"data":[0,0,0,-5.4776,-5.4776,-5.476,-5.4759,-5.4757,-5.4757,0,0,0,0,0,0,0,0,0,0,0,-5.4793,-5.4793,-5.4776,-5.4776,-5.476,-5.4759,-5.4757,-5.4757,0,0,0,0,0,0,0,0,0,0,0,-5.4793,-5.4793,-5.4794,-5.4776,-5.476,-5.4759,-5.4757,-5.4763,0,0,0,0,0,0,0,0,0,0,-5.4776,-5.4802,-5.4793,-5.4794,-5.4776,-5.476,-5.4759,-5.4763,-5.4762,-5.4772,0,-5.4785,0,-5.4771,-5.4758,-5.4758,0,0,0,-5.4768,-5.4803,-5.4788,-5.4794,-5.4776,-5.476,-5.4765,-5.4762,-5.4762,-5.4772,-5.4785,-5.4784,-5.4771,-5.4758,-5.4758,-5.4846,-5.4847,0,0,-5.4768,-5.4796,-5.4788,-5.4788,-5.4792,-5.4765,-5.4764,-5.4762,-5.4777,-5.4784,-5.4784,-5.4771,-5.4758,-5.4758,-5.4845,-5.4846,0,0,0,-5.4777,-5.4797,-5.4782,-5.4789,-5.4784,-5.4765,-5.4764,-5.4777,-5.477,-5.4783,-5.4771,-5.4758,-5.4759,-5.4844,-5.4846,-5.4913,0,0,0,-5.4777,-5.4802,-5.4783,-5.4799,-5.4785,-5.4781,-5.478,-5.477,-5.4769,-5.4771,-5.4758,-5.4759,-5.4843,-5.4845,-5.491,-5.4941,0,0,0,-5.479,-5.4803,-5.4805,-5.4801,-5.4795,-5.478,-5.4772,-5.4769,-5.4762,-5.4758,-5.4759,-5.4843,-5.4845,-5.4906,-5.4935,-5.4973,0,0,0,-5.4812,-5.4865,-5.4806,-5.4861,-5.4795,-5.4822,-5.4772,-5.479,-5.4795,-5.4758,-5.4844,-5.4846,-5.4905,-5.4932,-5.4969,-5.501,-5.5029,0,0,-5.4895,-5.4876,-5.4906,-5.4853,-5.4898,-5.4822,-5.4876,-5.4854,-5.4829,-5.4842,-5.4843,-5.4911,-5.4935,-5.4972,-5.5126,-5.5142,0,0,0,-5.4942,-5.4964,-5.497,-5.4976,-5.4961,-5.495,-5.4917,-5.4909,-5.4919,-5.4841,-5.4933,-5.4947,-5.4967,-5.4985,-5.4999,-5.5015,-5.4855,-5.4855,-5.4854,-5.51,-5.5064,-5.5112,-5.5074,-5.508,-5.5045,-5.5047,-5.503,-5.4992,-5.5014,-5.5018,-5.5116,-5.5138,-5.5148,-5.5165,-5.5036,-5.5036,-5.5036,-5.5036,-5.522,-5.5246,-5.5193,-5.522,-5.5181,-5.5204,-5.5172,-5.5144,-5.5159,-5.511,-5.5126,-5.5077,-5.5166,-5.5179,-5.5041,-5.504,-5.504,-5.5039,-5.5039,-5.532,-5.5326,-5.5315,-5.532,-5.5327,-5.5286,-5.5303,-5.5267,-5.5233,-5.5249,-5.5249,-5.5248,-5.5243,-5.5251,-5.5252,-5.5252,-5.5252,-5.5253,-5.5253,-5.5429,-5.5414,-5.5433,-5.5421,-5.542,-5.5414,-5.5378,-5.5376,-5.5364,-5.5337,-5.5337,-5.5297,-5.5181,-5.5154,-5.5258,-5.5257,-5.5256,-5.5256,-5.5256,-5.5565,-5.5529,-5.5558,-5.5557,-5.5539,-5.5549,-5.5502,-5.5501,-5.5493,-5.5503,-5.5458,-5.5379,-5.5357,-5.5347,-5.5324,-5.5466,-5.5466,-5.5466,-5.5466,-5.5651,-5.5636,-5.5658,-5.5659,-5.5655,-5.5615,-5.5649,-5.5622,-5.5588,-5.5581,-5.5555,-5.5521,-5.5511,-5.5495,-5.5481,-5.5459,-5.5633,-5.5633,-5.5633,-5.5733,-5.5716,-5.5753,-5.5719,-5.5702,-5.5688,-5.5719,-5.5722,-5.5675,-5.5639,-5.5575,-5.5568,-5.5512,-5.5496,-5.5461,-5.544,-5.5398,0,0]}]]